Regional Weather Roundup
Issued by NWS

Home | Current Version | Previous Version | Graphics & Text | Print | Product List | Glossary On
Versions: 1 2 3 4 5 6 7 8 9 10 11 12 13 14 15 16 17 18 19 20 21 22 23 24 25 26 27 28 29 30 31 32 33 34 35 36 37 38 39 40 41 42 43 44 45 46 47 48 49 50
798
ASUS43 KIND 102059
RWRIN

WEATHER ROUNDUP FOR INDIANA
NATIONAL WEATHER SERVICE INDIANAPOLIS IN
400 PM EST WED FEB 10 2016

NOTE: "FAIR" INDICATES FEW OR NO CLOUDS BELOW 12,000 FEET WITH NO
SIGNIFICANT WEATHER AND/OR OBSTRUCTIONS TO VISIBILITY.

* - STATION DOES NOT REPORT WEATHER SUCH AS PRECIPITATION OR FOG.

+ - STATION NOT QUALITY CONTROLLED BY THE NATIONAL WEATHER SERVICE.
    USE DATA WITH CAUTION...ESPECIALLY DEWPOINT AND RELATIVE
    HUMIDITY OBSERVATIONS.

INZ001>003-010>013-019-020-102200-
NORTHWEST INDIANA

CITY           SKY/WX    TMP DP  RH WIND       PRES   REMARKS
GARY /AIRPORT/ PTSUNNY   19   1  45 W12       30.03R WCI   7
RENSSELAER +   PTSUNNY   19   5  53 W9        30.03R WCI   9

$$

LMZ046-743>745-102200-
SOUTHERN LAKE MICHIGAN

STATION/POSITION TIME  TEMP    WIND        PRES    WAVE
                       AIR SEA DIR/SP/G            HT
                 (UTC) (F)     (DEG/KT/KT) (MB)    (FT)
BURNS HARBOR     2000   17     290/ 10/ 17 1016.6S
MICHIGAN CITY    2000   15     260/ 14/ 18   N/A

$$

INZ004-005-014>016-021>024-102200-
NORTH CENTRAL INDIANA

CITY           SKY/WX    TMP DP  RH WIND       PRES   REMARKS
ELKHART        CLOUDY   N/A N/A N/A W14       29.96R
GOSHEN         LGT SNOW  17  11  77 W21       29.94S WCI   0
SOUTH BEND     LGT SNOW  15   8  73 W17       29.98R WCI  -1

$$

INZ006>009-017-018-025>027-102200-
NORTHEAST INDIANA

CITY           SKY/WX    TMP DP  RH WIND       PRES   REMARKS
ANGOLA *+      PTSUNNY   18  12  79 NW12      29.89R WCI   5
FORT WAYNE     FLURRIES  22  10  60 W20G28    29.95R WCI   7

$$

INZ028-029-035-036-043>045-051>053-102200-
WEST CENTRAL INDIANA

CITY           SKY/WX    TMP DP  RH WIND       PRES   REMARKS
GREENCASTLE +  CLOUDY    18   1  49 W7G16     30.05R WCI   8
LAFAYETTE      CLOUDY    15   6  67 W13       30.05R WCI   1
TERRE HAUTE    MOSUNNY   19   6  57 W12G20    30.09R WCI   7

$$

INZ030>032-037>040-046>048-054>057-064-065-102200-
CENTRAL INDIANA

CITY           SKY/WX    TMP DP  RH WIND       PRES   REMARKS
ANDERSON       CLOUDY    16   7  67 W12G17    30.02R WCI   3
GREENWOOD *+   PTSUNNY   18   9  68 W10G16    30.04R WCI   6
INDIANAPOLIS   PTSUNNY   17   5  59 W17       30.03R WCI   1
-EAGLE CREEK   PTSUNNY   16   5  62 W13G23    30.03R WCI   2
KOKOMO *+      CLOUDY    16   5  62 W15       30.01R WCI   1
MT COMFORT *+  CLOUDY    16   7  67 W14       30.03R WCI   1
SHELBYVILLE    CLOUDY    18   5  57 W14       30.03R WCI   4

$$

INZ033-034-041-042-049-050-058-059-102200-
EAST CENTRAL INDIANA

CITY           SKY/WX    TMP DP  RH WIND       PRES   REMARKS
MUNCIE         CLOUDY    16   6  65 W15       30.00R WCI   1

$$

INZ060-061-067>069-081>083-085>088-102200-
SOUTHWEST INDIANA

CITY           SKY/WX    TMP DP  RH WIND       PRES   REMARKS
EVANSVILLE     CLOUDY    25   9  50 W14       30.14S WCI  13
HUNTINGBURG *+ CLOUDY    21   9  58 W9        30.12S WCI  11

$$

INZ062-063-066-070>080-084-089>092-102200-
SOUTH CENTRAL AND SOUTHEAST INDIANA

CITY           SKY/WX    TMP DP  RH WIND       PRES   REMARKS
BLOOMINGTON    CLOUDY    18   4  54 W10       30.05R WCI   6
MADISON *+     PTSUNNY   21   7  53 SW9       30.07S WCI  11
SEYMOUR +      MOSUNNY   23   9  54 W14       30.07S WCI  11

$$





USA.gov is the U.S. government's official web portal to all federal, state and local government web resources and services.